• în România
  • Lista ţărilor
  • Pe 7 zile
  • Temperatura apei
  • Hartă satelitară
  • Meteo pe hartă
  • Widget-uri
  • user-avatar
    Intrare

    Meteo pe oră la Blagoevgrad

    Astăzi, 18 Decembrie, Luni

    Timp Temperatura Precipitaţii Vânt Presiune Umiditate
    00:00 -1°C° 0 mm 2 m/s 719 mmHg 87%
    01:00 -1°C° 0 mm 2 m/s 719 mmHg 87%
    02:00 -1°C° 0 mm 2 m/s 719 mmHg 86%
    03:00 -2°C° 0 mm 2 m/s 720 mmHg 85%
    04:00 0°C° 0 mm 1 m/s 720 mmHg 84%
    05:00 0°C° 0 mm 1 m/s 720 mmHg 83%
    06:00 0°C° 0 mm 1 m/s 720 mmHg 82%
    07:00 0°C° 0 mm 1 m/s 720 mmHg 81%
    08:00 0°C° 0 mm 1 m/s 720 mmHg 80%
    09:00 +1°C° 0 mm 1 m/s 720 mmHg 76%
    10:00 +3°C° 0 mm 1 m/s 721 mmHg 73%
    11:00 +4°C° 0 mm 1 m/s 721 mmHg 70%
    12:00 +4°C° 0,1 mm 1 m/s 721 mmHg 71%
    13:00 +3°C° 0,1 mm 2 m/s 721 mmHg 72%
    14:00 +3°C° 0,1 mm 2 m/s 720 mmHg 73%
    15:00 +3°C° 0,1 mm 2 m/s 720 mmHg 76%
    16:00 +2°C° 0,1 mm 2 m/s 720 mmHg 80%
    17:00 +1°C° 0,1 mm 2 m/s 720 mmHg 83%
    18:00 +1°C° 0,1 mm 2 m/s 721 mmHg 83%
    19:00 -1°C° 0,1 mm 2 m/s 721 mmHg 84%
    20:00 -1°C° 0,1 mm 2 m/s 721 mmHg 85%
    21:00 -1°C° 0,1 mm 2 m/s 722 mmHg 84%
    22:00 -1°C° 0,1 mm 2 m/s 722 mmHg 84%
    23:00 -2°C° 0,1 mm 2 m/s 722 mmHg 83%

    Mâine, 19 Decembrie, Marţi

    Timp Temperatura Precipitaţii Vânt Presiune Umiditate
    00:00 -2°C° 0,1 mm 2 m/s 723 mmHg 83%
    01:00 -2°C° 0,1 mm 2 m/s 723 mmHg 83%
    02:00 -2°C° 0,1 mm 2 m/s 723 mmHg 83%
    03:00 -3°C° 0,1 mm 2 m/s 723 mmHg 83%
    04:00 -3°C° 0,1 mm 2 m/s 724 mmHg 83%
    05:00 -3°C° 0,1 mm 2 m/s 724 mmHg 84%
    06:00 -3°C° 0 mm 2 m/s 724 mmHg 83%
    07:00 -3°C° 0 mm 2 m/s 725 mmHg 83%
    08:00 -3°C° 0 mm 2 m/s 725 mmHg 83%
    09:00 -2°C° 0 mm 2 m/s 726 mmHg 78%
    10:00 -2°C° 0 mm 2 m/s 726 mmHg 72%
    11:00 -1°C° 0 mm 2 m/s 727 mmHg 67%
    12:00 +1°C° 0 mm 2 m/s 727 mmHg 66%
    13:00 +1°C° 0 mm 2 m/s 727 mmHg 64%
    14:00 +2°C° 0 mm 2 m/s 727 mmHg 63%
    15:00 +1°C° 0 mm 2 m/s 727 mmHg 68%
    16:00 -1°C° 0 mm 2 m/s 727 mmHg 73%
    17:00 -2°C° 0 mm 2 m/s 727 mmHg 78%
    18:00 -3°C° 0 mm 2 m/s 728 mmHg 79%
    19:00 -3°C° 0 mm 2 m/s 728 mmHg 81%
    20:00 -2°C° 0 mm 1 m/s 728 mmHg 82%
    21:00 -2°C° 0 mm 1 m/s 729 mmHg 82%
    22:00 -2°C° 0 mm 1 m/s 729 mmHg 82%
    23:00 -2°C° 0 mm 1 m/s 729 mmHg 81%

    Poimâine, 20 Decembrie, Miercuri

    Timp Temperatura Precipitaţii Vânt Presiune Umiditate
    00:00 -2°C° 0 mm 1 m/s 729 mmHg 81%
    01:00 -3°C° 0 mm 1 m/s 729 mmHg 81%
    02:00 -3°C° 0 mm 1 m/s 729 mmHg 81%
    03:00 -3°C° 0 mm 1 m/s 729 mmHg 81%
    04:00 -3°C° 0 mm 1 m/s 729 mmHg 81%
    05:00 -3°C° 0 mm 1 m/s 729 mmHg 81%
    06:00 -4°C° 0 mm 1 m/s 729 mmHg 81%
    07:00 -4°C° 0 mm 1 m/s 729 mmHg 80%
    08:00 -4°C° 0 mm 1 m/s 730 mmHg 80%
    09:00 -2°C° 0 mm 1 m/s 730 mmHg 75%
    10:00 -1°C° 0 mm 1 m/s 730 mmHg 69%
    11:00 +1°C° 0 mm 1 m/s 730 mmHg 64%
    12:00 +1°C° 0 mm 1 m/s 730 mmHg 62%
    13:00 +2°C° 0 mm 1 m/s 729 mmHg 61%
    14:00 +2°C° 0 mm 1 m/s 729 mmHg 59%
    15:00 +1°C° 0 mm 1 m/s 729 mmHg 65%
    16:00 0°C° 0 mm 1 m/s 729 mmHg 70%
    17:00 -1°C° 0 mm 1 m/s 729 mmHg 76%
    18:00 -2°C° 0 mm 1 m/s 729 mmHg 77%
    19:00 -2°C° 0 mm 1 m/s 729 mmHg 77%
    20:00 -3°C° 0 mm 1 m/s 729 mmHg 78%
    21:00 -3°C° 0 mm 1 m/s 730 mmHg 77%
    22:00 -3°C° 0 mm 1 m/s 730 mmHg 76%
    23:00 -3°C° 0 mm 1 m/s 730 mmHg 75%

    21 Decembrie, Joi

    Timp Temperatura Precipitaţii Vânt Presiune Umiditate
    00:00 -3°C° 0 mm 1 m/s 730 mmHg 74%
    01:00 -4°C° 0 mm 1 m/s 730 mmHg 73%
    02:00 -4°C° 0 mm 1 m/s 730 mmHg 72%
    03:00 -4°C° 0 mm 1 m/s 730 mmHg 71%
    04:00 -4°C° 0 mm 1 m/s 730 mmHg 70%
    05:00 -4°C° 0 mm 1 m/s 729 mmHg 69%
    06:00 -4°C° 0 mm 1 m/s 730 mmHg 68%
    07:00 -4°C° 0 mm 1 m/s 730 mmHg 67%
    08:00 -4°C° 0 mm 1 m/s 730 mmHg 65%
    09:00 -3°C° 0 mm 1 m/s 730 mmHg 60%
    10:00 -1°C° 0 mm 1 m/s 731 mmHg 55%
    11:00 +1°C° 0 mm 1 m/s 731 mmHg 50%
    12:00 +1°C° 0 mm 1 m/s 730 mmHg 49%
    13:00 +2°C° 0 mm 1 m/s 730 mmHg 48%
    14:00 +1°C° 0 mm 2 m/s 730 mmHg 47%
    15:00 +1°C° 0 mm 1 m/s 729 mmHg 53%
    16:00 0°C° 0 mm 1 m/s 729 mmHg 59%
    17:00 -2°C° 0 mm 1 m/s 729 mmHg 65%
    18:00 -2°C° 0 mm 1 m/s 729 mmHg 66%
    19:00 -3°C° 0 mm 1 m/s 730 mmHg 67%
    20:00 -3°C° 0 mm 1 m/s 730 mmHg 67%
    21:00 -3°C° 0 mm 1 m/s 730 mmHg 67%
    22:00 -3°C° 0 mm 1 m/s 730 mmHg 66%
    23:00 -4°C° 0 mm 1 m/s 730 mmHg 65%

    22 Decembrie, Vineri

    Timp Temperatura Precipitaţii Vânt Presiune Umiditate
    00:00 -4°C° 0 mm 1 m/s 730 mmHg 65%
    01:00 -4°C° 0 mm 1 m/s 730 mmHg 65%
    02:00 -3°C° 0 mm 1 m/s 729 mmHg 65%
    03:00 -3°C° 0 mm 1 m/s 729 mmHg 64%
    04:00 -3°C° 0 mm 1 m/s 729 mmHg 64%
    05:00 -3°C° 0 mm 1 m/s 728 mmHg 64%
    06:00 -3°C° 0 mm 1 m/s 728 mmHg 63%
    07:00 -2°C° 0 mm 1 m/s 728 mmHg 63%
    08:00 -2°C° 0 mm 1 m/s 728 mmHg 62%
    09:00 0°C° 0 mm 1 m/s 728 mmHg 59%
    10:00 +2°C° 0 mm 1 m/s 728 mmHg 55%
    11:00 +4°C° 0 mm 1 m/s 728 mmHg 52%
    12:00 +5°C° 0 mm 1 m/s 727 mmHg 55%
    13:00 +5°C° 0 mm 2 m/s 727 mmHg 57%
    14:00 +6°C° 0 mm 2 m/s 726 mmHg 60%
    15:00 +5°C° 0 mm 2 m/s 726 mmHg 66%
    16:00 +5°C° 0 mm 1 m/s 726 mmHg 72%
    17:00 +4°C° 0 mm 1 m/s 726 mmHg 78%
    18:00 +3°C° 0 mm 2 m/s 726 mmHg 79%
    19:00 +3°C° 0 mm 2 m/s 726 mmHg 81%
    20:00 +3°C° 0 mm 2 m/s 726 mmHg 82%
    21:00 +2°C° 0 mm 2 m/s 726 mmHg 84%
    22:00 +2°C° 0 mm 2 m/s 727 mmHg 85%
    23:00 +2°C° 0 mm 2 m/s 727 mmHg 86%

    23 Decembrie, Sâmbătă

    Timp Temperatura Precipitaţii Vânt Presiune Umiditate
    00:00 +1°C° 0 mm 2 m/s 726 mmHg 86%
    01:00 -1°C° 0 mm 2 m/s 726 mmHg 86%
    02:00 -1°C° 0 mm 2 m/s 726 mmHg 86%
    03:00 -2°C° 0 mm 2 m/s 726 mmHg 86%
    04:00 -2°C° 0 mm 2 m/s 726 mmHg 86%
    05:00 -2°C° 0 mm 2 m/s 725 mmHg 85%
    06:00 -3°C° 0 mm 2 m/s 725 mmHg 83%
    07:00 -3°C° 0 mm 2 m/s 725 mmHg 82%
    08:00 -3°C° 0 mm 2 m/s 725 mmHg 80%
    09:00 -2°C° 0 mm 2 m/s 725 mmHg 72%
    10:00 +1°C° 0 mm 2 m/s 725 mmHg 65%
    11:00 +3°C° 0 mm 2 m/s 724 mmHg 58%
    12:00 +3°C° 0 mm 2 m/s 723 mmHg 55%
    13:00 +4°C° 0 mm 2 m/s 723 mmHg 52%
    14:00 +5°C° 0 mm 2 m/s 722 mmHg 50%
    15:00 +3°C° 0 mm 2 m/s 721 mmHg 55%
    16:00 +2°C° 0 mm 2 m/s 721 mmHg 60%
    17:00 +2°C° 0 mm 1 m/s 720 mmHg 65%
    18:00 +2°C° 0 mm 1 m/s 720 mmHg 66%
    19:00 +1°C° 0 mm 1 m/s 720 mmHg 68%
    20:00 +1°C° 0 mm 1 m/s 720 mmHg 69%
    21:00 -1°C° 0 mm 2 m/s 720 mmHg 72%
    22:00 -1°C° 0 mm 2 m/s 720 mmHg 74%
    23:00 -1°C° 0 mm 2 m/s 720 mmHg 77%
    Arată mai mult